Frederick, OK

6:27 PM CDT on March 29, 2017 (GMT -0500)
Frederick Municipal

Weather History for KFDR - October, 2012

Change the Weather History Date:

Wednesday, October 17, 2012

  Actual Average (KLTS) Record (KLTS)
Temperature  
Mean Temperature 68 °F -  
Max Temperature 82 °F 73 °F 94 °F (2016)
Min Temperature 54 °F 49 °F 36 °F (2013)
Cooling Degree Days 4    
Growing Degree Days 18 (Base 50)    
Moisture  
Dew Point 42 °F    
Average Humidity 41    
Maximum Humidity 73    
Minimum Humidity 17    
Precipitation  
Precipitation 0.00 in - - ()
Sea Level Pressure  
Sea Level Pressure 29.58 in    
Wind  
Wind Speed 16 mph (NW)    
Max Wind Speed 26 mph    
Max Gust Speed 34 mph    
Visibility 10 miles    
Events      
Averages and records for this station are not official NWS values.
T = Trace of Precipitation, MM = Missing Value Source: NWS Daily Summary

Daily Weather History Graph

Daily Weather History Graph

Search for Another Location

Airport or City:

Trip Planner

Search our weather history database for the weather conditions in past years. The results will help you decide how hot, cold, wet, or windy it might be!

Date:

Astronomy

Oct. 17, 2012 Rise Set
Actual Time 7:43 AM CDT 6:58 PM CDT
Civil Twilight 7:17 AM CDT 7:23 PM CDT
Nautical Twilight 6:48 AM CDT 7:52 PM CDT
Astronomical Twilight 6:19 AM CDT 8:22 PM CDT
Moon 10:11 AM CDT (10/17) 8:44 PM CDT (10/17)
Length of Visible Light 12h 05m
Length of Day
11h 15m
Waxing Crescent, 7% of the Moon is Illuminated
Oct 17
Waxing Crescent
Oct 21
First Quarter
Oct 29
Full
Nov 6
Last Quarter
Nov 13
New

Hourly Weather History & Observations

Time (CDT) Temp. Dew Point Humidity Pressure Visibility Wind Dir Wind Speed Gust Speed Precip Events Conditions
12:53 AM 71.1 °F 59.0 °F 66% 29.47 in 10.0 mi SSW 16.1 mph - N/A   Clear
1:53 AM 69.1 °F 59.0 °F 70% 29.45 in 10.0 mi South 15.0 mph - N/A   Clear
2:53 AM 68.0 °F 59.0 °F 73% 29.44 in 10.0 mi SSW 15.0 mph - N/A   Clear
3:53 AM 68.0 °F 59.0 °F 73% 29.42 in 10.0 mi SSW 16.1 mph - N/A   Clear
4:53 AM 68.0 °F 59.0 °F 73% 29.39 in 10.0 mi SSW 16.1 mph - N/A   Clear
5:53 AM 66.9 °F 57.9 °F 73% 29.40 in 10.0 mi SW 15.0 mph - N/A   Clear
6:53 AM 64.9 °F 55.0 °F 70% 29.42 in 10.0 mi West 19.6 mph 25.3 mph N/A   Clear
7:53 AM 63.0 °F 45.0 °F 52% 29.45 in 10.0 mi West 10.4 mph - N/A   Clear
8:53 AM 66.0 °F 43.0 °F 43% 29.48 in 10.0 mi West 10.4 mph - N/A   Clear
9:53 AM 73.9 °F 44.1 °F 34% 29.52 in 10.0 mi NNW 13.8 mph - N/A   Clear
10:53 AM 77.0 °F 43.0 °F 30% 29.56 in 10.0 mi North 26.5 mph 33.4 mph N/A   Clear
11:53 AM 80.1 °F 39.9 °F 24% 29.59 in 10.0 mi North 25.3 mph 33.4 mph N/A   Clear
12:53 PM 82.0 °F 39.9 °F 22% 29.61 in 10.0 mi North 23.0 mph 34.5 mph N/A   Clear
1:53 PM 82.9 °F 36.0 °F 19% 29.61 in 10.0 mi NNW 21.9 mph 32.2 mph N/A   Clear
2:53 PM 82.0 °F 35.1 °F 18% 29.61 in 10.0 mi NNW 19.6 mph 31.1 mph N/A   Clear
3:53 PM 81.0 °F 36.0 °F 20% 29.64 in 10.0 mi North 24.2 mph 28.8 mph N/A   Clear
4:53 PM 80.1 °F 32.0 °F 17% 29.67 in 10.0 mi North 25.3 mph 29.9 mph N/A   Clear
5:53 PM 78.1 °F 28.9 °F 17% 29.68 in 10.0 mi North 18.4 mph - N/A   Clear
6:53 PM 72.0 °F 28.0 °F 20% 29.70 in 10.0 mi North 12.7 mph - N/A   Clear
7:53 PM 64.9 °F 30.0 °F 27% 29.72 in 10.0 mi North 10.4 mph - N/A   Clear
8:53 PM 60.1 °F 30.9 °F 33% 29.76 in 10.0 mi North 11.5 mph - N/A   Clear
9:53 PM 60.1 °F 30.9 °F 33% 29.77 in 10.0 mi NNE 12.7 mph - N/A   Clear
10:53 PM 55.9 °F 30.9 °F 39% 29.80 in 10.0 mi North 10.4 mph - N/A   Clear
11:53 PM 54.0 °F 30.0 °F 40% 29.82 in 10.0 mi North 11.5 mph - N/A   Clear